Overview Statistics Trail Chart Weather Telemetry Raw packets
 

This is the latest recevied weather packets stored in our database for station/object KG7FOQ-13. If no packets are shown the sender has not sent any weather packets the latest 10 day(s).

<< 99 100 101 102 103 104 105 >>
Time Temp. Humidity Pressure Rain* Wind** Luminosity Snow
1787866203 30.56° C 20% 1016.5 hPa 0 mm - - -
1787865902 30.56° C 19% 1016.7 hPa 0 mm - - -
1787865639 31.11° C 17% 1017 hPa 0 mm - - -
1787865601 31.11° C 17% 1017 hPa 0 mm - - -
1787865301 31.67° C 18% 1017 hPa 0 mm - - -
1787865000 31.11° C 17% 1017.1 hPa 0 mm - - -
1787864700 31.11° C 17% 1017.2 hPa 0 mm - - -
1787864399 30.56° C 18% 1017.3 hPa 0 mm - - -
1787864098 31.11° C 18% 1017.3 hPa 0 mm - - -
1787863799 30.56° C 18% 1017.3 hPa 0 mm - - -
1787863497 30.56° C 19% 1017.2 hPa 0 mm - - -
1787863197 30° C 20% 1017.3 hPa 0 mm - - -
1787862596 30° C 23% 1017.5 hPa 0 mm - - -
1787862296 28.89° C 22% 1017.7 hPa 0 mm - - -
1787861995 30° C 22% 1017.9 hPa 0 mm - - -
1787861694 28.89° C 22% 1017.8 hPa 0 mm - - -
1787861394 28.89° C 20% 1017.7 hPa 0 mm - - -
1787861093 30° C 22% 1017.9 hPa 0 mm - - -
1787860793 30° C 21% 1018 hPa 0 mm - - -
1787860493 30° C 22% 1018.1 hPa 0 mm - - -
1787860193 28.89° C 19% 1018.2 hPa 0 mm - - -
1787859891 29.44° C 19% 1018.4 hPa 0 mm - - -
1787859649 30° C 18% 1018.4 hPa 0 mm - - -
1787859591 30° C 18% 1018.4 hPa 0 mm - - -
1787859301 29.44° C 20% 1018.4 hPa 0 mm - - -

* Rain latest hour (hover to see other rain measurements)
** Current wind speed in m/s (hover to see current wind gust speed)